This is the latest recevied weather packets stored in our database for station/object KB4NWJ. If no packets are shown the sender has not sent any weather packets the latest 10 day(s).
| Time | Temp. | Humidity | Pressure | Rain* | Wind** | Luminosity | Snow |
|---|---|---|---|---|---|---|---|
| 1777167915 | 18.89° C | 98% | 1012 hPa | 0 mm | - | 0 W/m² | - |
| 1777167615 | 18.89° C | 98% | 1011.4 hPa | 0 mm | - | 0 W/m² | - |
| 1777167310 | 18.89° C | 98% | 1011.3 hPa | 0 mm | - | 0 W/m² | - |
| 1777167006 | 18.89° C | 98% | 1010.9 hPa | 0 mm | - | 0 W/m² | - |
| 1777166702 | 18.89° C | 98% | 1011.1 hPa | 0 mm | - | 0 W/m² | - |
| 1777166398 | 18.89° C | 98% | 1010.9 hPa | 0 mm | - | 0 W/m² | - |
| 1777166094 | 18.89° C | 97% | 1010.9 hPa | 0 mm | - | 0 W/m² | - |
| 1777165791 | 18.89° C | 97% | 1011.3 hPa | 0 mm | - | 0 W/m² | - |
| 1777165488 | 18.89° C | 97% | 1011 hPa | 0 mm | - | 0 W/m² | - |
| 1777165184 | 18.89° C | 96% | 1011 hPa | 0 mm | - | 0 W/m² | - |
| 1777164880 | 18.89° C | 96% | 1010.8 hPa | 0 mm | - | 0 W/m² | - |
| 1777164577 | 18.89° C | 95% | 1010.9 hPa | 0 mm | - | 0 W/m² | - |
| 1777164273 | 19.44° C | 94% | 1010.8 hPa | 0 mm | - | 0 W/m² | - |
| 1777163968 | 19.44° C | 93% | 1010.9 hPa | 0 mm | - | 0 W/m² | - |
| 1777163668 | 19.44° C | 93% | 1010.8 hPa | 0 mm | - | 0 W/m² | - |
| 1777163362 | 20° C | 92% | 1010.8 hPa | 0 mm | - | 0 W/m² | - |
| 1777163060 | 20° C | 91% | 1010.5 hPa | 0 mm | - | 0 W/m² | - |
| 1777162754 | 20° C | 90% | 1010.3 hPa | 0 mm | - | 1 W/m² | - |
| 1777162449 | 20.56° C | 89% | 1010.6 hPa | 0 mm | - | 3 W/m² | - |
| 1777162149 | 20.56° C | 88% | 1010.2 hPa | 0 mm | - | 8 W/m² | - |
| 1777161845 | 20.56° C | 88% | 1010.3 hPa | 0 mm | - | 12 W/m² | - |
| 1777161541 | 20.56° C | 88% | 1010.2 hPa | 0 mm | - | 14 W/m² | - |
| 1777161237 | 20.56° C | 88% | 1010.4 hPa | 0 mm | - | 17 W/m² | - |
| 1777160933 | 20.56° C | 87% | 1010.5 hPa | 0 mm | - | 19 W/m² | - |
| 1777160629 | 21.11° C | 86% | 1010.3 hPa | 0 mm | - | 18 W/m² | - |
* Rain latest hour (hover to see other rain measurements)
** Current wind speed in m/s (hover to see current wind gust speed)